User: anonymous   Login
Location: Unspecified
(0.0000°N, 0.0000°E)
Time: 20:24:38
(UTC+00:00)
Language:

HO-68 - Orbit

View from above orbital plane
View from above orbital plane
View from above satellite
View from above satellite

Ground track
Ground track

The orbit data is extracted from the following two-line orbital elements,

1 36122U 09072B   16273.48988214 -.00000021  00000-0  57461-4 0  9996
2 36122 100.1334 305.0809 0008174 114.7024 245.4941 13.16336127326331
Epoch (UTC): 29 September 2016 11:45:25
Eccentricity: 0.0008174
inclination: 100.1334°
perigee height: 1192 km
apogee height: 1205 km
right ascension of ascending node: 305.0809°
argument of perigee: 114.7024°
revolutions per day: 13.16336127
mean anomaly at epoch: 245.4941°
orbit number at epoch: 32633

The dashed part of the orbit path shows where the satellite is in the earth's shadow,  

DLR